N6YV Weather Reports


Display with metric or nautical units.
time (UTC)temp
F
wind
direction
speed
MPH
gust
MPH
rain 1hr
in
rain 24hr
in
rain mn
in
humidity
%
barometer
mb
20260906053041 56 83 1.0 0.0 0.00 0.00 0.00 58 1006.7
20260906051535 57 82 2.0 0.0 0.00 0.00 0.00 57 1006.8
20260906050040 58 84 3.0 0.0 0.00 0.00 0.00 55 1006.9
20260906044535 58 98 3.0 0.0 0.00 0.00 0.00 54 1006.7
20260906043042 59 115 3.0 0.0 0.00 0.00 0.00 53 1006.8
20260906041534 59 89 5.0 0.0 0.00 0.00 0.00 50 1006.5
20260906040034 60 82 3.0 0.0 0.00 0.00 0.00 50 1006.4
20260906034532 60 83 4.0 0.0 0.00 0.00 0.00 48 1006.2
20260906033032 61 100 4.0 0.0 0.00 0.00 0.00 47 1006.2
20260906031531 61 96 2.0 0.0 0.00 0.00 0.00 46 1006.3
20260906030031 63 108 3.0 0.0 0.00 0.00 0.00 44 1005.9
20260906024530 64 126 3.0 0.0 0.00 0.00 0.00 41 1005.8
20260906023032 65 194 3.0 0.0 0.00 0.00 0.00 36 1005.5
20260906021530 65 252 6.0 0.0 0.00 0.00 0.00 36 1005.5
20260906020030 66 228 6.0 0.0 0.00 0.00 0.00 35 1005.4
20260906014541 67 259 9.0 0.0 0.00 0.00 0.00 34 1005.3
20260906013032 67 282 12.0 0.0 0.00 0.00 0.00 33 1005.2
20260906011529 68 222 12.0 0.0 0.00 0.00 0.00 33 1005.0
20260906010028 69 241 12.0 0.0 0.00 0.00 0.00 32 1004.9
20260906004526 69 236 12.0 0.0 0.00 0.00 0.00 31 1005.2
20260906003027 70 207 15.0 0.0 0.00 0.00 0.00 29 1005.0
20260906001526 71 265 13.0 0.0 0.00 0.00 0.00 27 1005.1
20260906000026 71 247 13.0 0.0 0.00 0.00 0.00 26 1005.4
20260905234525 72 254 12.0 0.0 0.00 0.00 0.00 26 1005.1
20260905233025 73 262 12.0 0.0 0.00 0.00 0.00 25 1005.1
20260905231524 74 257 9.0 0.0 0.00 0.00 0.00 24 1005.2
20260905230024 73 267 11.0 0.0 0.00 0.00 0.00 26 1005.3
20260905224524 73 244 15.0 0.0 0.00 0.00 0.00 25 1005.4
20260905223031 73 312 12.0 0.0 0.00 0.00 0.00 24 1005.3
20260905221521 73 219 11.0 0.0 0.00 0.00 0.00 24 1005.6
20260905220020 73 258 13.0 0.0 0.00 0.00 0.00 24 1005.6
20260905214518 73 263 12.0 0.0 0.00 0.00 0.00 24 1005.5
20260905213019 73 220 14.0 0.0 0.00 0.00 0.00 25 1005.5
20260905211515 73 196 9.0 0.0 0.00 0.00 0.00 27 1005.6
20260905210015 73 250 6.0 0.0 0.00 0.00 0.00 27 1005.7
20260905204511 72 225 8.0 0.0 0.00 0.00 0.00 28 1006.0
20260905203008 71 227 6.0 0.0 0.00 0.00 0.00 30 1006.1
20260905201507 71 208 7.0 0.0 0.00 0.00 0.00 31 1006.4
20260905200007 71 150 8.0 0.0 0.00 0.00 0.00 31 1006.5
20260905194504 70 217 8.0 0.0 0.00 0.00 0.00 32 1006.8
20260905193002 69 192 7.0 0.0 0.00 0.00 0.00 34 1007.0
20260905191603 69 201 8.0 0.0 0.00 0.00 0.00 35 1007.2
20260905190108 68 194 8.0 0.0 0.00 0.00 0.00 35 1007.3
20260905184600 66 163 3.0 0.0 0.00 0.00 0.00 40 1007.5
20260905183057 65 12 2.0 0.0 0.00 0.00 0.00 44 1007.7
20260905181557 64 40 3.0 0.0 0.00 0.00 0.00 44 1008.0
20260905180048 63 38 3.0 0.0 0.00 0.00 0.00 46 1008.0
20260905174547 62 13 3.0 0.0 0.00 0.00 0.00 47 1008.2
20260905173042 61 47 3.0 0.0 0.00 0.00 0.00 49 1008.3
20260905171540 60 56 3.0 0.0 0.00 0.00 0.00 52 1008.5
20260905170040 59 77 3.0 0.0 0.00 0.00 0.00 53 1008.5
20260905164537 59 53 3.0 0.0 0.00 0.00 0.00 54 1008.5
20260905163030 57 57 3.0 0.0 0.00 0.00 0.00 56 1008.6
20260905161527 56 27 2.0 0.0 0.00 0.00 0.00 59 1008.6
20260905160025 55 14 2.0 0.0 0.00 0.00 0.00 59 1008.7
20260905154521 54 63 2.0 0.0 0.00 0.00 0.00 61 1008.7
20260905153024 54 307 3.0 0.0 0.00 0.00 0.00 61 1008.8
20260905151519 54 261 1.0 0.0 0.00 0.00 0.00 61 1008.7
20260905150019 53 250 1.0 0.0 0.00 0.00 0.00 63 1008.6
20260905144513 52 250 1.0 0.0 0.00 0.00 0.00 67 1008.8
20260905143019 49 250 1.0 0.0 0.00 0.00 0.00 72 1008.6
20260905141510 46 250 0.0 0.0 0.00 0.00 0.00 78 1008.4
20260905140010 44 250 1.0 0.0 0.00 0.00 0.00 80 1008.4
20260905134510 43 250 2.0 0.0 0.00 0.00 0.00 79 1008.2
20260905133004 43 249 3.0 0.0 0.00 0.00 0.00 78 1007.9
20260905131501 44 250 1.0 0.0 0.00 0.00 0.00 77 1007.7
20260905130105 44 253 2.0 0.0 0.00 0.00 0.00 78 1007.4
20260905124558 44 252 3.0 0.0 0.00 0.00 0.00 77 1007.4
20260905123058 44 252 2.0 0.0 0.00 0.00 0.00 77 1007.3
20260905121555 44 251 2.0 0.0 0.00 0.00 0.00 76 1007.3
20260905120100 45 257 2.0 0.0 0.00 0.00 0.00 74 1007.3
20260905114552 45 258 3.0 0.0 0.00 0.00 0.00 74 1007.1
20260905113050 45 254 2.0 0.0 0.00 0.00 0.00 74 1007.1
20260905111606 45 258 1.0 0.0 0.00 0.00 0.00 75 1007.1
20260905110054 45 259 4.0 0.0 0.00 0.00 0.00 76 1007.1
20260905104545 45 265 2.0 0.0 0.00 0.00 0.00 74 1006.9
20260905103043 46 267 3.0 0.0 0.00 0.00 0.00 74 1006.9
20260905101547 46 279 4.0 0.0 0.00 0.00 0.00 74 1006.9
20260905100040 46 279 3.0 0.0 0.00 0.00 0.00 74 1006.8
20260905094537 46 280 3.0 0.0 0.00 0.00 0.00 72 1006.8
20260905093036 47 280 3.0 0.0 0.00 0.00 0.00 71 1006.8
20260905091532 48 280 3.0 0.0 0.00 0.00 0.00 68 1006.7
20260905090031 48 270 3.0 0.0 0.00 0.00 0.00 69 1006.6
20260905084531 49 278 2.0 0.0 0.00 0.00 0.00 68 1006.4
20260905083028 49 278 2.0 0.0 0.00 0.00 0.00 67 1006.5
20260905081528 49 278 4.0 0.0 0.00 0.00 0.00 67 1006.4
20260905080027 50 267 2.0 0.0 0.00 0.00 0.00 65 1006.5
20260905074525 50 267 3.0 0.0 0.00 0.00 0.00 64 1006.3
20260905073024 49 257 5.0 0.0 0.00 0.00 0.00 66 1006.1
20260905071535 48 254 4.0 0.0 0.00 0.00 0.00 67 1006.1
20260905070015 49 252 3.0 0.0 0.00 0.00 0.00 66 1005.9
20260905064513 49 250 3.0 0.0 0.00 0.00 0.00 66 1005.8
20260905063012 49 302 3.0 0.0 0.00 0.00 0.00 67 1005.7
20260905061511 49 302 4.0 0.0 0.00 0.00 0.00 66 1005.6
20260905060009 49 303 4.0 0.0 0.00 0.00 0.00 68 1005.3
20260905054514 50 304 3.0 0.0 0.00 0.00 0.00 66 1005.3